Tracking 19170 objects as of 23-May-2018
HD Live streaming from Space Station
objects crossing your sky now

COSMOS 827

Track COSMOS 827 now!
10-day predictions
COSMOS 827 is classified as:


NORAD ID: 8891
Int'l Code: 1976-054C
Perigee: 1,420.3 km
Apogee: 1,495.8 km
Inclination: 74.0 °
Period: 114.9 minutes
Semi major axis: 7829 km
RCS: 0.6693 m2 (medium)
Launch date: June 15, 1976
Source: Commonwealth of Independent States (former USSR) (CIS)
Launch site: PLESETSK MISSILE AND SPACE COMPLEX (PKMTR)
aabbcc
Your satellite tracking list
Your tracking list is empty




NASA's NSSDC Master Catalog

Two Line Element Set (TLE):
1  8891U 76054C   18142.42624524 +.00000000 +00000-0 +10037-3 0  9997
2  8891 073.9981 122.1748 0048235 047.7511 067.3261 12.53262137336309
Source of the keplerian elements: AFSPC